Osceola, WI

12:12 AM CDT on April 22, 2018 (GMT -0500)
Simenstad Municipal

Weather History for KOEO - March, 2013

Change the Weather History Date:

Wednesday, March 20, 2013

  Actual Average (KANE) Record (KANE)
Temperature  
Mean Temperature 13 °F -  
Max Temperature 23 °F 39 °F 64 °F (2012)
Min Temperature 3 °F 21 °F 6 °F (2013)
Degree Days  
Heating Degree Days 52    
Moisture  
Dew Point 0 °F    
Average Humidity 58    
Maximum Humidity 79    
Minimum Humidity 46    
Precipitation  
Precipitation 0.00 in - - ()
Sea Level Pressure  
Sea Level Pressure 30.14 in    
Wind  
Wind Speed 10 mph (WNW)    
Max Wind Speed 17 mph    
Max Gust Speed 24 mph    
Visibility 10 miles    
Events      
Averages and records for this station are not official NWS values.
T = Trace of Precipitation, MM = Missing Value Source: NWS Daily Summary

Daily Weather History Graph

Daily Weather History Graph

Search for Another Location

Airport or City:

Astronomy

Mar. 20, 2013 Rise Set
Actual Time 7:13 AM CDT 7:23 PM CDT
Civil Twilight 6:43 AM CDT 7:53 PM CDT
Nautical Twilight 6:09 AM CDT 8:27 PM CDT
Astronomical Twilight 5:33 AM CDT 9:03 PM CDT
Moon 12:44 PM CDT (3/20) 3:08 AM CDT (3/20)
Length of Visible Light 13h 09m
Length of Day
12h 10m
First Quarter, 59% of the Moon is Illuminated
Mar 20
First Quarter
Mar 27
Full
Apr 2
Last Quarter
Apr 10
New
Apr 18
First Quarter

Hourly Weather History & Observations

Time (CDT) Temp. Windchill Dew Point Humidity Pressure Visibility Wind Dir Wind Speed Gust Speed Precip Events Conditions
12:15 AM 8.6 °F -5.5 °F -4.0 °F 57% 30.16 in 10.0 mi WNW 10.4 mph 17.3 mph N/A   Clear
12:35 AM 8.6 °F -5.5 °F -4.0 °F 57% 30.17 in 10.0 mi WNW 10.4 mph - N/A   Clear
12:55 AM 8.6 °F -3.7 °F -4.0 °F 57% 30.17 in 10.0 mi West 8.1 mph - N/A   Clear
1:15 AM 8.6 °F -4.7 °F -5.8 °F 52% 30.17 in 10.0 mi West 9.2 mph - N/A   Clear
1:35 AM 6.8 °F -4.8 °F -5.8 °F 56% 30.18 in 10.0 mi West 6.9 mph - N/A   Clear
1:55 AM 6.8 °F -6.9 °F -5.8 °F 56% 30.18 in 10.0 mi West 9.2 mph - N/A   Clear
2:15 AM 5.0 °F -9.1 °F -5.8 °F 61% 30.18 in 10.0 mi West 9.2 mph - N/A   Clear
2:35 AM 5.0 °F -10.8 °F -5.8 °F 61% 30.18 in 10.0 mi West 11.5 mph - N/A   Clear
2:55 AM 5.0 °F -9.1 °F -5.8 °F 61% 30.17 in 10.0 mi West 9.2 mph - N/A   Clear
3:15 AM 5.0 °F -9.1 °F -4.0 °F 66% 30.17 in 10.0 mi West 9.2 mph - N/A   Clear
3:35 AM 5.0 °F -10.8 °F -4.0 °F 66% 30.17 in 10.0 mi West 11.5 mph - N/A   Clear
3:55 AM 5.0 °F -8.1 °F -4.0 °F 66% 30.16 in 10.0 mi West 8.1 mph - N/A   Clear
4:15 AM 5.0 °F -9.1 °F -4.0 °F 66% 30.16 in 10.0 mi WNW 9.2 mph - N/A   Clear
4:35 AM 5.0 °F -9.1 °F -4.0 °F 66% 30.16 in 10.0 mi WNW 9.2 mph - N/A   Clear
4:55 AM 5.0 °F -8.1 °F -4.0 °F 66% 30.16 in 10.0 mi WNW 8.1 mph - N/A   Clear
5:15 AM 3.2 °F -9.1 °F -4.0 °F 72% 30.17 in 10.0 mi WNW 6.9 mph - N/A   Clear
5:35 AM 3.2 °F -10.3 °F -4.0 °F 72% 30.17 in 10.0 mi WNW 8.1 mph - N/A   Clear
5:55 AM 3.2 °F -7.8 °F -5.8 °F 66% 30.18 in 10.0 mi West 5.8 mph - N/A   Clear
6:15 AM 3.2 °F -7.8 °F -5.8 °F 66% 30.18 in 10.0 mi West 5.8 mph - N/A   Clear
6:35 AM 3.2 °F -10.3 °F -5.8 °F 66% 30.19 in 10.0 mi West 8.1 mph - N/A   Clear
6:55 AM 3.2 °F -10.3 °F -5.8 °F 66% 30.18 in 10.0 mi West 8.1 mph - N/A   Clear
7:15 AM 3.2 °F -12.2 °F -5.8 °F 66% 30.18 in 10.0 mi West 10.4 mph - N/A   Clear
7:35 AM 3.2 °F -13.1 °F -4.0 °F 72% 30.18 in 10.0 mi West 11.5 mph - N/A   Clear
7:55 AM 5.0 °F -10.8 °F -4.0 °F 66% 30.18 in 10.0 mi West 11.5 mph - N/A   Clear
8:15 AM 5.0 °F -10.8 °F -4.0 °F 66% 30.18 in 10.0 mi WNW 11.5 mph 18.4 mph N/A   Clear
8:35 AM 6.8 °F -10.7 °F -4.0 °F 61% 30.18 in 10.0 mi WNW 15.0 mph 23.0 mph N/A   Clear
8:55 AM 8.6 °F -7.0 °F -4.0 °F 57% 30.18 in 10.0 mi NW 12.7 mph 19.6 mph N/A   Clear
9:15 AM 8.6 °F -8.3 °F -4.0 °F 57% 30.18 in 10.0 mi WNW 15.0 mph 19.6 mph N/A   Clear
9:55 AM 10.4 °F -5.4 °F -2.2 °F 57% 30.18 in 10.0 mi NW 13.8 mph 24.2 mph N/A   Clear
10:15 AM 10.4 °F -6.0 °F -2.2 °F 57% 30.17 in 10.0 mi WNW 15.0 mph 19.6 mph N/A   Clear
10:55 AM 12.2 °F -2.5 °F -0.4 °F 57% 30.16 in 10.0 mi NW 12.7 mph - N/A   Clear
11:15 AM 12.2 °F -3.7 °F -0.4 °F 57% 30.16 in 10.0 mi WNW 15.0 mph 21.9 mph N/A   Clear
11:35 AM 14.0 °F -0.8 °F -0.4 °F 53% 30.16 in 10.0 mi WNW 13.8 mph 21.9 mph N/A   Clear
11:55 AM 14.0 °F -0.8 °F 1.4 °F 57% 30.15 in 10.0 mi WNW 13.8 mph 20.7 mph N/A   Clear
12:15 PM 15.8 °F 1.4 °F 1.4 °F 53% 30.15 in 10.0 mi WNW 13.8 mph 21.9 mph N/A   Clear
12:35 PM 17.6 °F 2.2 °F 1.4 °F 49% 30.15 in 10.0 mi WNW 17.3 mph 24.2 mph N/A   Clear
12:55 PM 17.6 °F 3.7 °F 1.4 °F 49% 30.14 in 10.0 mi NW 13.8 mph 20.7 mph N/A   Clear
1:35 PM 19.4 °F 4.5 °F 3.2 °F 49% 30.14 in 10.0 mi NW 17.3 mph 21.9 mph N/A   Mostly Cloudy
1:55 PM 19.4 °F 6.0 °F 3.2 °F 49% 30.13 in 10.0 mi NW 13.8 mph 24.2 mph N/A   Scattered Clouds
2:15 PM 19.4 °F 5.5 °F 3.2 °F 49% 30.13 in 10.0 mi NW 15.0 mph 20.7 mph N/A   Scattered Clouds
2:35 PM 19.4 °F 7.2 °F 3.2 °F 49% 30.12 in 10.0 mi NW 11.5 mph 20.7 mph N/A   Scattered Clouds
2:55 PM 23.0 °F 12.4 °F 5.0 °F 46% 30.12 in 10.0 mi WNW 10.4 mph - N/A   Mostly Cloudy
3:15 PM 21.2 °F 8.9 °F 5.0 °F 50% 30.11 in 10.0 mi WNW 12.7 mph 18.4 mph N/A   Mostly Cloudy
3:35 PM 21.2 °F 10.1 °F 5.0 °F 50% 30.11 in 10.0 mi WNW 10.4 mph - N/A   Mostly Cloudy
3:55 PM 23.0 °F 11.7 °F 5.0 °F 46% 30.10 in 10.0 mi WNW 11.5 mph 17.3 mph N/A   Scattered Clouds
4:15 PM 23.0 °F 11.7 °F 5.0 °F 46% 30.10 in 10.0 mi NW 11.5 mph 17.3 mph N/A   Clear
4:35 PM 23.0 °F 11.7 °F 5.0 °F 46% 30.10 in 10.0 mi WNW 11.5 mph 17.3 mph N/A   Scattered Clouds
4:55 PM 23.0 °F 12.4 °F 5.0 °F 46% 30.10 in 10.0 mi NNW 10.4 mph 19.6 mph N/A   Scattered Clouds
5:15 PM 23.0 °F 11.7 °F 5.0 °F 46% 30.10 in 10.0 mi WNW 11.5 mph - N/A   Scattered Clouds
5:35 PM 23.0 °F 13.9 °F 5.0 °F 46% 30.10 in 10.0 mi West 8.1 mph - N/A   Mostly Cloudy
5:55 PM 23.0 °F 13.1 °F 5.0 °F 46% 30.11 in 10.0 mi WNW 9.2 mph 16.1 mph N/A   Overcast
6:15 PM 21.2 °F 10.9 °F 5.0 °F 50% 30.11 in 10.0 mi NW 9.2 mph - N/A   Mostly Cloudy
6:35 PM 21.2 °F 12.6 °F 6.8 °F 54% 30.11 in 10.0 mi NW 6.9 mph - N/A   Mostly Cloudy
6:55 PM 21.2 °F 12.6 °F 5.0 °F 50% 30.11 in 10.0 mi NW 6.9 mph - N/A   Overcast
7:15 PM 19.4 °F 12.8 °F 5.0 °F 54% 30.11 in 10.0 mi NNW 4.6 mph - N/A   Mostly Cloudy
7:35 PM 19.4 °F 12.8 °F 5.0 °F 54% 30.11 in 10.0 mi NNW 4.6 mph - N/A   Scattered Clouds
7:55 PM 19.4 °F 14.3 °F 5.0 °F 54% 30.11 in 10.0 mi North 3.5 mph - N/A   Scattered Clouds
8:15 PM 17.6 °F 10.7 °F 5.0 °F 58% 30.12 in 10.0 mi West 4.6 mph - N/A   Clear
8:35 PM 19.4 °F 9.5 °F 5.0 °F 54% 30.12 in 10.0 mi WNW 8.1 mph - N/A   Mostly Cloudy
8:55 PM 19.4 °F 10.4 °F 5.0 °F 54% 30.12 in 10.0 mi West 6.9 mph - N/A   Overcast
9:15 PM 17.6 °F 7.3 °F 5.0 °F 58% 30.12 in 10.0 mi West 8.1 mph - N/A   Overcast
9:35 PM 17.6 °F 7.3 °F 5.0 °F 58% 30.12 in 10.0 mi West 8.1 mph - N/A   Overcast
9:55 PM 15.8 °F 8.6 °F 3.2 °F 58% 30.12 in 10.0 mi West 4.6 mph - N/A   Mostly Cloudy
10:15 PM 14.0 °F 8.2 °F 3.2 °F 62% 30.12 in 10.0 mi West 3.5 mph - N/A   Overcast
10:35 PM 14.0 °F 8.2 °F 3.2 °F 62% 30.13 in 10.0 mi West 3.5 mph - N/A   Overcast
10:55 PM 14.0 °F 8.2 °F 3.2 °F 62% 30.12 in 10.0 mi WNW 3.5 mph - N/A   Mostly Cloudy
11:15 PM 12.2 °F 6.1 °F 1.4 °F 62% 30.13 in 10.0 mi South 3.5 mph - N/A   Mostly Cloudy
11:35 PM 8.6 °F - -0.4 °F 67% 30.13 in 10.0 mi Calm Calm - N/A   Mostly Cloudy
11:55 PM 6.8 °F - 1.4 °F 79% 30.13 in 10.0 mi Calm Calm - N/A   Overcast